#timestamp,LO_Frequency,Hit,StdDev 
1689534015.5,286047002.2,N
1689534035.4,286047002.4,N
1689534055.2,286046999.7,N
1689534075.1,286047002.0,N
1689534076.0,286047002.0,N
1689534095.8,286047002.8,N
1689534115.6,286046999.7,N
1689534135.5,286047002.8,N
1689534155.3,286047000.2,N
1689534175.2,286047000.6,N
1689534195.9,286047002.8,N
1689534215.7,286047002.2,N
1689534235.6,286047000.1,N
1689534255.4,286047002.8,N
1689534275.2,286047000.2,N
1689534295.1,286047000.2,N
1689534296.0,286047000.2,N
1689534315.8,286047002.8,N
1689534335.7,286047002.4,N
1689534355.5,286047002.7,N
1689534375.3,286047002.7,N
1689534395.2,286047002.5,N
1689534415.0,286047002.4,N
1689534415.9,286047002.4,N
1689534435.8,286047000.2,N
1689534455.6,286047002.6,N
1689534475.4,286047002.6,N
1689534495.3,286046999.8,N
1689534515.1,286047002.0,N
1689534535.8,286047002.6,N
1689534555.7,286047002.3,N
1689534575.5,286047002.3,N
1689534595.3,286047002.4,N
1689534615.2,286047002.7,N
1689534635.0,286047002.7,N
1689534635.9,286047002.7,N
1689534655.8,286047002.8,N
1689534675.6,286047002.6,N
1689534695.4,286047002.1,N
1689534715.3,286047002.2,N
1689534735.1,286047002.2,N
1689534755.9,286047002.2,N
1689534775.7,286047002.4,N
1689534795.5,286047002.8,Y
1689534815.4,286046998.7,P
1689534835.2,286046998.7,N
1689534855.0,286046998.5,N
1689534856.0,286046998.5,N
1689534875.8,286046998.7,N
1689534895.6,286046999.2,N
1689534915.5,286046998.9,N
1689534935.3,286046999.5,N
1689534955.1,286046998.4,N
1689534975.9,286047000.7,N
1689534995.7,286047000.7,N
1689535015.6,286047001.2,N
1689535035.4,286047000.7,N
1689535055.2,286046998.1,N
1689535075.1,286046999.9,N
1689535076.0,286046999.9,N
1689535095.8,286046999.9,N
1689535115.7,286047000.4,N
1689535135.5,286047000.9,N
1689535155.3,286047000.9,N
1689535175.2,286046998.6,N
1689535195.0,286047000.2,N
1689535195.9,286047000.2,N
1689535215.8,286046999.9,N
1689535235.6,286047000.0,N
1689535255.4,286047000.6,N
1689535275.3,286047000.9,N
1689535295.1,286047000.5,N
1689535315.8,286047000.7,N
1689535335.7,286047001.0,N
1689535355.5,286047001.1,N
1689535375.4,286046998.7,N
1689535395.2,286046999.4,N
1689535415.0,286046998.8,N
1689535415.9,286046998.8,N
1689535435.8,286046996.6,Y
1689535455.6,286046999.2,P
1689535475.5,286046998.7,P
1689535495.3,286046999.5,N
1689535515.1,286046997.7,Y
1689535535.9,286046999.0,P
1689535555.7,286046998.4,P
1689535575.5,286046998.6,P
1689535595.4,286046998.5,Y
1689535615.2,286046999.7,P
1689535635.1,286047002.4,P
1689535636.0,286047002.4,N
1689535655.8,286046999.8,N
1689535675.6,286047002.4,N
1689535695.5,286046999.8,N
1689535715.3,286047000.3,N
1689535735.1,286047001.0,N
1689535755.9,286047000.7,N
1689535775.7,286046998.3,N
1689535795.6,286047001.2,N
1689535845.4,286047000.7,E
1689535855.4,286046998.8,N
1689535875.2,286047000.8,P
1689535895.0,286047000.6,N
1689535895.9,286047000.6,N
1689535915.8,286047000.4,N
1689535935.6,286047000.7,N
1689535955.4,286047000.6,N
1689535975.3,286047000.5,N
1689535995.1,286046998.2,Y
1689536015.9,286046998.3,P
1689536035.7,286046998.4,N
1689536055.5,286047001.2,N
1689536075.4,286046998.4,N
1689536095.2,286046999.4,N
1689536115.0,286046996.6,Y
1689536115.9,286046996.6,P
1689536135.8,286046999.3,N
1689536155.6,286046998.4,N
1689536175.5,286046999.4,N
1689536195.3,286046998.2,N
1689536215.1,286046998.5,N
1689536235.9,286046998.5,N
1689536255.7,286046998.9,N
1689536275.6,286046998.4,N
1689536295.4,286046999.1,N
1689536315.2,286046998.5,N
1689536335.1,286046999.3,N
1689536336.0,286046999.3,N
1689536355.8,286046999.3,N
1689536375.6,286046999.0,N
1689536395.5,286046999.6,N
1689536415.3,286046996.7,Y
1689536435.2,286046999.3,P
1689536455.0,286047001.1,P
1689536455.9,286047001.1,N
1689536475.7,286047001.2,N
1689536495.6,286047001.1,N
1689536515.4,286047000.8,N
1689536535.3,286046998.5,N
1689536555.1,286046998.3,N
1689536556.0,286046998.3,N
1689536575.8,286046999.0,N
1689536595.3,286046999.4,N
1689536615.1,286046999.0,N
1689536635.9,286046999.6,N
1689536655.7,286046999.4,N
1689536675.6,286046999.1,N
1689536695.4,286046999.3,N
1689536715.2,286046999.2,N
1689536735.1,286046999.1,N
1689536736.0,286046999.1,N
1689536755.8,286046998.8,N
1689536775.6,286046999.6,N
1689536795.5,286046996.9,Y
1689536815.3,286046999.2,P
1689536835.2,286046996.7,P
1689536855.9,286046996.6,N
1689536875.7,286046997.0,N
1689536895.6,286046997.4,N
1689536915.4,286046997.5,N
1689536935.3,286046999.5,N
1689536955.1,286046999.3,N
1689536956.0,286046999.3,N
1689536975.8,286046996.9,N
1689536995.7,286046999.1,N
1689537015.5,286046996.5,N
1689537035.3,286046999.2,N
1689537055.2,286046997.3,N
1689537075.0,286046996.6,N
1689537075.9,286046996.6,N
1689537095.8,286046999.5,N
1689537115.6,286046997.3,N
1689537135.4,286046996.9,N
1689537155.3,286046999.1,N
1689537175.1,286046999.2,N
1689537195.9,286046999.5,N
1689537215.7,286046996.7,N
1689537235.5,286046999.2,N
1689537255.4,286046998.9,N
1689537275.2,286046999.1,N
1689537295.0,286046996.8,N
1689537295.9,286046996.8,N
1689537315.8,286046999.6,N
1689537335.6,286046996.5,N
1689537355.5,286046997.0,N
1689537375.3,286046996.6,N
1689537395.1,286046996.6,N
1689537415.9,286046997.3,N
1689537435.7,286046999.6,N
1689537455.5,286046999.4,N
1689537475.4,286046996.9,N
1689537495.2,286046997.0,N
1689537515.1,286046997.1,N
1689537516.0,286046997.1,N
1689537535.8,286046996.9,N
1689537555.6,286046997.0,N
1689537575.5,286046996.6,N
1689537595.3,286046999.1,N
